BAW14A EGLL-EGPH

Flight info

Callsign BAW14A
Flight time 0h 47m
Altitude 32000
Route ULTIB T420 TNT UN57 POL UN601 RIBEL DCT INPIP
Aircraft A320/M-SDE3FGHIRWY/LB1

Departure

Time 2026-04-22 10:05
Airport London Heathrow Airport (EGLL)

Arrival

Time 2026-04-22 10:52
Airport Edinburgh Airport (EGPH)
Time Latitude Longitude Altitude Speed Heading
2026-04-22 09:45 51.47383 -0.48207 90 ft 0 kts 89°
2026-04-22 09:54 51.47383 -0.48225 91 ft 2 kts 90°
2026-04-22 09:55 51.47383 -0.48258 89 ft 3 kts 94°
2026-04-22 09:55 51.47385 -0.48290 89 ft 3 kts 99°
2026-04-22 09:55 51.47389 -0.48321 89 ft 3 kts 110°
2026-04-22 09:55 51.47398 -0.48349 90 ft 3 kts 139°
2026-04-22 09:56 51.47409 -0.48359 92 ft 1 kts 178°
2026-04-22 09:56 51.47410 -0.48359 89 ft 0 kts 179°
2026-04-22 10:00 51.47387 -0.48359 90 ft 7 kts 179°
2026-04-22 10:00 51.47315 -0.48359 88 ft 14 kts 180°
2026-04-22 10:00 51.47194 -0.48355 91 ft 20 kts 178°
2026-04-22 10:00 51.47047 -0.48354 89 ft 22 kts 180°
2026-04-22 10:01 51.46882 -0.48355 90 ft 25 kts 183°
2026-04-22 10:01 51.46798 -0.48354 92 ft 0 kts 178°
2026-04-22 10:02 51.46787 -0.48355 93 ft 4 kts 185°
2026-04-22 10:02 51.46746 -0.48397 94 ft 11 kts 244°
2026-04-22 10:02 51.46739 -0.48557 92 ft 17 kts 267°
2026-04-22 10:02 51.46719 -0.48728 94 ft 13 kts 230°
2026-04-22 10:03 51.46630 -0.48749 92 ft 11 kts 187°
2026-04-22 10:03 51.46574 -0.48780 91 ft 9 kts 198°
2026-04-22 10:03 51.46509 -0.48767 93 ft 10 kts 148°
2026-04-22 10:03 51.46477 -0.48663 93 ft 12 kts 89°
2026-04-22 10:04 51.46477 -0.48579 93 ft 0 kts 89°
2026-04-22 10:04 51.46479 -0.48238 94 ft 68 kts 90°
2026-04-22 10:04 51.46483 -0.47131 91 ft 125 kts 89°
2026-04-22 10:05 51.46487 -0.45574 421 ft 145 kts 92°
2026-04-22 10:05 51.46483 -0.43931 1159 ft 147 kts 91°
2026-04-22 10:05 51.46487 -0.42228 1721 ft 163 kts 86°
2026-04-22 10:05 51.46970 -0.40412 1966 ft 197 kts 56°
2026-04-22 10:06 51.47902 -0.38623 2495 ft 220 kts 55°
2026-04-22 10:06 51.48904 -0.36668 3209 ft 237 kts 55°
2026-04-22 10:06 51.49945 -0.34606 4273 ft 240 kts 57°
2026-04-22 10:06 51.51000 -0.32482 5301 ft 245 kts 57°
2026-04-22 10:07 51.52061 -0.30279 5785 ft 249 kts 62°
2026-04-22 10:07 51.52770 -0.27768 5948 ft 246 kts 74°
2026-04-22 10:07 51.53401 -0.25205 5998 ft 248 kts 64°
2026-04-22 10:07 51.54585 -0.23128 6031 ft 261 kts 39°
2026-04-22 10:08 51.56334 -0.22181 6109 ft 275 kts
2026-04-22 10:08 51.58275 -0.22327 6314 ft 283 kts 358°
2026-04-22 10:08 51.60227 -0.22890 6508 ft 286 kts 353°
2026-04-22 10:08 51.62139 -0.23864 6457 ft 291 kts 338°
2026-04-22 10:09 51.63846 -0.25659 6507 ft 294 kts 329°
2026-04-22 10:09 51.65551 -0.27470 6791 ft 293 kts 332°
2026-04-22 10:09 51.67279 -0.29189 7834 ft 293 kts 332°
2026-04-22 10:09 51.69039 -0.30910 8758 ft 298 kts 333°
2026-04-22 10:10 51.70816 -0.32602 9682 ft 302 kts 333°
2026-04-22 10:10 51.72642 -0.34328 10593 ft 307 kts 333°
2026-04-22 10:10 51.74557 -0.36138 10941 ft 331 kts 332°
2026-04-22 10:10 51.76590 -0.38075 11454 ft 344 kts 332°
2026-04-22 10:11 51.78665 -0.40070 12087 ft 350 kts 332°
2026-04-22 10:11 51.80761 -0.42101 12863 ft 354 kts 332°
2026-04-22 10:11 51.82888 -0.44169 13614 ft 358 kts 331°
2026-04-22 10:11 51.85038 -0.46262 14385 ft 362 kts 331°
2026-04-22 10:12 51.87207 -0.48374 15113 ft 365 kts 330°
2026-04-22 10:12 51.89387 -0.50500 15840 ft 367 kts 331°
2026-04-22 10:12 51.91589 -0.52646 16527 ft 370 kts 331°
2026-04-22 10:12 51.93810 -0.54809 17202 ft 373 kts 331°
2026-04-22 10:13 51.96045 -0.56984 17915 ft 375 kts 330°
2026-04-22 10:13 51.98282 -0.59166 18664 ft 376 kts 330°
2026-04-22 10:13 52.00523 -0.61358 19348 ft 376 kts 330°
2026-04-22 10:13 52.02755 -0.63553 20012 ft 375 kts 330°
2026-04-22 10:14 52.04974 -0.65739 20296 ft 371 kts 330°
2026-04-22 10:14 52.07144 -0.67882 20373 ft 369 kts 330°
2026-04-22 10:14 52.09344 -0.70051 20382 ft 369 kts 330°
2026-04-22 10:14 52.11537 -0.72211 20382 ft 369 kts 330°
2026-04-22 10:15 52.13737 -0.74374 20381 ft 370 kts 329°
2026-04-22 10:15 52.15938 -0.76538 20378 ft 369 kts 330°
2026-04-22 10:15 52.18137 -0.78705 20375 ft 369 kts 330°
2026-04-22 10:15 52.20329 -0.80869 20371 ft 367 kts 330°
2026-04-22 10:16 52.22517 -0.83034 20369 ft 368 kts 330°
2026-04-22 10:16 52.24706 -0.85206 20365 ft 369 kts 329°
2026-04-22 10:16 52.26904 -0.87387 20362 ft 369 kts 329°
2026-04-22 10:16 52.29094 -0.89562 20367 ft 369 kts 329°
2026-04-22 10:17 52.31265 -0.91718 20364 ft 371 kts 330°
2026-04-22 10:17 52.33468 -0.93911 20377 ft 371 kts 329°
2026-04-22 10:17 52.35679 -0.96116 20378 ft 372 kts 329°
2026-04-22 10:17 52.37886 -0.98320 20381 ft 372 kts 329°
2026-04-22 10:18 52.40096 -1.00530 20381 ft 372 kts 329°
2026-04-22 10:18 52.42299 -1.02729 20380 ft 371 kts 329°
2026-04-22 10:18 52.44500 -1.04927 20331 ft 370 kts 329°
2026-04-22 10:18 52.46697 -1.07130 20485 ft 373 kts 329°
2026-04-22 10:19 52.48913 -1.09352 21188 ft 373 kts 328°
2026-04-22 10:19 52.51128 -1.11572 21862 ft 374 kts 328°
2026-04-22 10:19 52.53351 -1.13807 22526 ft 374 kts 328°
2026-04-22 10:19 52.55569 -1.16039 23201 ft 374 kts 325°
2026-04-22 10:20 52.57798 -1.18277 23829 ft 376 kts 328°
2026-04-22 10:20 52.60031 -1.20537 24335 ft 378 kts 328°
2026-04-22 10:20 52.62276 -1.22817 24846 ft 380 kts 327°
2026-04-22 10:20 52.64531 -1.25107 25358 ft 382 kts 327°
2026-04-22 10:21 52.66796 -1.27412 25880 ft 384 kts 327°
2026-04-22 10:21 52.68307 -1.28949 26226 ft 385 kts 327°
2026-04-22 10:21 52.70594 -1.31272 26743 ft 387 kts 327°
2026-04-22 10:21 52.72896 -1.33606 27279 ft 389 kts 327°
2026-04-22 10:22 52.75962 -1.36720 28150 ft 392 kts 327°
2026-04-22 10:22 52.77533 -1.38320 28496 ft 394 kts 327°
2026-04-22 10:22 52.79865 -1.40701 29001 ft 396 kts 327°
2026-04-22 10:22 52.82214 -1.43102 29487 ft 398 kts 327°
2026-04-22 10:23 52.84570 -1.45514 29955 ft 400 kts 327°
2026-04-22 10:23 52.86946 -1.47954 30414 ft 402 kts 327°
2026-04-22 10:23 52.89327 -1.50405 30794 ft 404 kts 326°
2026-04-22 10:23 52.91721 -1.52870 31132 ft 407 kts 326°
2026-04-22 10:24 52.94136 -1.55356 31423 ft 410 kts 326°
2026-04-22 10:24 52.96537 -1.57830 31755 ft 413 kts 326°
2026-04-22 10:24 52.98989 -1.60357 32098 ft 416 kts 326°
2026-04-22 10:24 53.01449 -1.62901 32370 ft 417 kts 326°
2026-04-22 10:25 53.03880 -1.65415 32417 ft 403 kts 326°
2026-04-22 10:25 53.06327 -1.67547 32405 ft 394 kts 335°
2026-04-22 10:25 53.11441 -1.70721 32402 ft 391 kts 337°
2026-04-22 10:26 53.16532 -1.73880 32407 ft 390 kts 336°
2026-04-22 10:26 53.21110 -1.76722 32418 ft 390 kts 336°
2026-04-22 10:27 53.24713 -1.78964 32442 ft 390 kts 336°
2026-04-22 10:27 53.29793 -1.82143 32433 ft 390 kts 336°
2026-04-22 10:28 53.34870 -1.85329 32435 ft 390 kts 336°
2026-04-22 10:28 53.43558 -1.90785 32437 ft 390 kts 336°
2026-04-22 10:29 53.53653 -1.97143 32442 ft 389 kts 336°
2026-04-22 10:29 53.63796 -2.03564 32437 ft 389 kts 336°
2026-04-22 10:30 53.73914 -2.10031 32447 ft 389 kts 336°
2026-04-22 10:30 53.83974 -2.16816 32442 ft 389 kts 334°
2026-04-22 10:31 53.94000 -2.23733 32444 ft 389 kts 335°
2026-04-22 10:31 53.99187 -2.27295 32044 ft 382 kts 334°
2026-04-22 10:31 54.01640 -2.28979 31552 ft 379 kts 334°
2026-04-22 10:32 54.04063 -2.30644 31320 ft 370 kts 334°
2026-04-22 10:32 54.06440 -2.32281 30876 ft 369 kts 334°
2026-04-22 10:32 54.08823 -2.33933 30290 ft 369 kts 334°
2026-04-22 10:32 54.11189 -2.35575 29724 ft 366 kts 334°
2026-04-22 10:33 54.13515 -2.37184 29194 ft 364 kts 334°
2026-04-22 10:33 54.15853 -2.38802 28662 ft 362 kts 334°
2026-04-22 10:33 54.18180 -2.40415 28131 ft 360 kts 334°
2026-04-22 10:33 54.20490 -2.42022 27657 ft 358 kts 334°
2026-04-22 10:34 54.22788 -2.43624 27189 ft 356 kts 334°
2026-04-22 10:34 54.25074 -2.45221 26684 ft 354 kts 334°
2026-04-22 10:34 54.27345 -2.46807 26462 ft 353 kts 334°
2026-04-22 10:34 54.29622 -2.48401 26464 ft 354 kts 334°
2026-04-22 10:35 54.31902 -2.50001 26457 ft 354 kts 334°
2026-04-22 10:35 54.34181 -2.51598 26465 ft 354 kts 334°
2026-04-22 10:35 54.36469 -2.53203 26472 ft 356 kts 335°
2026-04-22 10:35 54.38759 -2.54811 26468 ft 356 kts 334°
2026-04-22 10:36 54.42157 -2.57198 26464 ft 354 kts 334°
2026-04-22 10:36 54.46726 -2.60414 26469 ft 356 kts 334°
2026-04-22 10:36 54.51323 -2.63668 26468 ft 359 kts 335°
2026-04-22 10:36 54.55955 -2.66957 26477 ft 360 kts 335°
2026-04-22 10:37 54.60526 -2.70197 26483 ft 359 kts 334°
2026-04-22 10:37 54.69730 -2.76748 26478 ft 358 kts 334°
2026-04-22 10:37 54.74335 -2.80035 26482 ft 360 kts 334°
2026-04-22 10:38 54.78986 -2.83374 26270 ft 366 kts 334°
2026-04-22 10:38 54.83795 -2.86840 24776 ft 379 kts 334°
2026-04-22 10:38 54.88673 -2.90345 23602 ft 377 kts 335°
2026-04-22 10:38 54.93352 -2.93727 23146 ft 354 kts 335°
2026-04-22 10:39 54.97859 -2.97066 22097 ft 351 kts 335°
2026-04-22 10:39 55.02372 -3.00522 20846 ft 357 kts 335°
2026-04-22 10:39 55.06833 -3.04019 20486 ft 346 kts 335°
2026-04-22 10:39 55.11332 -3.07575 20491 ft 359 kts 335°
2026-04-22 10:40 55.15894 -3.11176 20502 ft 359 kts 335°
2026-04-22 10:40 55.20418 -3.14772 20506 ft 358 kts 335°
2026-04-22 10:40 55.24986 -3.18384 20506 ft 360 kts 335°
2026-04-22 10:40 55.29536 -3.22010 20275 ft 356 kts 335°
2026-04-22 10:41 55.34048 -3.25608 19311 ft 355 kts 335°
2026-04-22 10:41 55.38492 -3.29197 18475 ft 348 kts 335°
2026-04-22 10:41 55.42877 -3.32765 17507 ft 346 kts 335°
2026-04-22 10:41 55.47193 -3.36375 16637 ft 341 kts 334°
2026-04-22 10:42 55.51442 -3.39961 15776 ft 337 kts 335°
2026-04-22 10:42 55.55673 -3.43537 14936 ft 335 kts 334°
2026-04-22 10:42 55.59844 -3.47057 14172 ft 330 kts 334°
2026-04-22 10:42 55.63975 -3.50569 13293 ft 328 kts 334°
2026-04-22 10:43 55.68049 -3.54079 12515 ft 323 kts 334°
2026-04-22 10:43 55.72057 -3.57581 11714 ft 319 kts 335°
2026-04-22 10:43 55.76008 -3.61110 10953 ft 315 kts 335°
2026-04-22 10:43 55.79818 -3.64581 10470 ft 303 kts 334°
2026-04-22 10:44 55.82438 -3.70178 9703 ft 301 kts 282°
2026-04-22 10:44 55.82841 -3.77509 8862 ft 297 kts 271°
2026-04-22 10:44 55.83288 -3.84763 8178 ft 293 kts 281°
2026-04-22 10:44 55.84167 -3.91827 7427 ft 292 kts 281°
2026-04-22 10:45 55.85046 -3.98768 6735 ft 289 kts 281°
2026-04-22 10:45 55.84740 -4.05703 5983 ft 282 kts 252°
2026-04-22 10:45 55.83782 -4.12421 5290 ft 278 kts 250°
2026-04-22 10:45 55.81379 -4.17121 4610 ft 255 kts 192°
2026-04-22 10:46 55.78238 -4.16295 4523 ft 214 kts 152°
2026-04-22 10:46 55.76560 -4.12905 4524 ft 182 kts 96°
2026-04-22 10:46 55.76882 -4.08263 4541 ft 195 kts 77°
2026-04-22 10:46 55.77670 -4.03688 4526 ft 193 kts 76°
2026-04-22 10:47 55.78473 -3.99089 4529 ft 196 kts 76°
2026-04-22 10:47 55.79132 -3.94473 4521 ft 192 kts 81°
2026-04-22 10:47 55.79675 -3.89796 4524 ft 193 kts 82°
2026-04-22 10:47 55.80200 -3.85131 4454 ft 190 kts 81°
2026-04-22 10:48 55.80697 -3.80573 4019 ft 181 kts 81°
2026-04-22 10:48 55.81601 -3.76561 3965 ft 176 kts 64°
2026-04-22 10:48 55.82842 -3.72842 3988 ft 174 kts 63°
2026-04-22 10:48 55.84087 -3.69199 4040 ft 173 kts 62°
2026-04-22 10:49 55.85337 -3.65559 3720 ft 172 kts 62°
2026-04-22 10:49 55.86565 -3.61979 3262 ft 167 kts 61°
2026-04-22 10:49 55.87680 -3.58728 2826 ft 140 kts 61°
2026-04-22 10:49 55.88612 -3.56003 2465 ft 120 kts 62°
2026-04-22 10:50 55.89466 -3.53502 2136 ft 115 kts 60°
2026-04-22 10:50 55.90308 -3.51037 1834 ft 114 kts 62°
2026-04-22 10:50 55.91119 -3.48656 1512 ft 115 kts 62°
2026-04-22 10:50 55.91955 -3.46204 1171 ft 116 kts 62°
2026-04-22 10:51 55.92615 -3.44264 919 ft 112 kts 60°
2026-04-22 10:51 55.93023 -3.43071 719 ft 114 kts 60°
2026-04-22 10:51 55.93437 -3.41859 568 ft 116 kts 60°
2026-04-22 10:51 55.93861 -3.40611 408 ft 118 kts 61°
2026-04-22 10:52 55.94283 -3.39374 223 ft 115 kts 62°
2026-04-22 10:52 55.94689 -3.38154 117 ft 106 kts 58°
2026-04-22 10:52 55.94928 -3.37451 107 ft 38 kts 60°
2026-04-22 10:52 55.95046 -3.37111 106 ft 24 kts 57°
2026-04-22 10:53 55.95131 -3.36860 109 ft 26 kts 58°
2026-04-22 10:53 55.95242 -3.36538 104 ft 22 kts 59°
2026-04-22 10:53 55.95211 -3.36379 100 ft 7 kts 156°
2026-04-22 10:53 55.95182 -3.36340 102 ft 5 kts 144°
2026-04-22 10:54 55.95175 -3.36331 103 ft 0 kts 145°